Parsons, KS

4:21 AM CDT on May 26, 2017 (GMT -0500)
Tri-City

Weather History for KPPF - February, 2014

Change the Weather History Date:

Friday, February 21, 2014

  Actual Average Record
Temperature  
Mean Temperature 44 °F -  
Max Temperature 62 °F 52 °F 77 °F (1981)
Min Temperature 25 °F 30 °F 9 °F (1963)
Degree Days  
Heating Degree Days 22    
Moisture  
Dew Point 18 °F    
Average Humidity 43    
Maximum Humidity 72    
Minimum Humidity 15    
Precipitation  
Precipitation 0.00 in - - ()
Sea Level Pressure  
Sea Level Pressure 29.98 in    
Wind  
Wind Speed 8 mph (SW)    
Max Wind Speed 23 mph    
Max Gust Speed 32 mph    
Visibility 10 miles    
Events      
Averages and records for this station are not official NWS values.
T = Trace of Precipitation, MM = Missing Value Source: NWS Daily Summary

Daily Weather History Graph

Daily Weather History Graph

Search for Another Location

Airport or City:

Trip Planner

Search our weather history database for the weather conditions in past years. The results will help you decide how hot, cold, wet, or windy it might be!

Date:

Astronomy

Feb. 21, 2014 Rise Set
Actual Time 7:03 AM CST 6:08 PM CST
Civil Twilight 6:37 AM CST 6:34 PM CST
Nautical Twilight 6:06 AM CST 7:04 PM CST
Astronomical Twilight 5:36 AM CST 7:35 PM CST
Moon No Moon Rise 10:37 AM CST (2/21)
Length of Visible Light 11h 57m
Length of Day
11h 04m
Waning Gibbous, 60% of the Moon is Illuminated
Feb 21
Waning Gibbous
Feb 22
Last Quarter
Mar 1
New
Mar 8
First Quarter
Mar 16
Full

Hourly Weather History & Observations

Time (CST) Temp. Windchill Dew Point Humidity Pressure Visibility Wind Dir Wind Speed Gust Speed Precip Events Conditions
12:52 AM 36.0 °F 29.6 °F 19.0 °F 50% 29.99 in 10.0 mi West 8.1 mph - N/A   Clear
1:52 AM 36.0 °F 29.0 °F 19.9 °F 52% 30.01 in 10.0 mi West 9.2 mph - N/A   Clear
2:52 AM 35.1 °F 29.3 °F 19.9 °F 54% 30.01 in 10.0 mi West 6.9 mph - N/A   Clear
3:52 AM 32.0 °F 28.7 °F 19.0 °F 59% 30.00 in 10.0 mi WSW 3.5 mph - N/A   Clear
4:52 AM 26.1 °F - 17.1 °F 69% 30.02 in 10.0 mi Calm Calm - N/A   Clear
5:52 AM 26.1 °F - 17.1 °F 69% 30.01 in 10.0 mi Calm Calm - N/A   Clear
6:52 AM 25.0 °F 20.7 °F 17.1 °F 72% 30.03 in 10.0 mi South 3.5 mph - N/A   Clear
7:52 AM 30.0 °F 25.2 °F 19.9 °F 66% 30.03 in 10.0 mi South 4.6 mph - N/A   Clear
8:52 AM 36.0 °F 31.1 °F 19.9 °F 52% 30.03 in 10.0 mi SSW 5.8 mph - N/A   Clear
9:52 AM 44.1 °F 39.0 °F 19.0 °F 37% 30.02 in 10.0 mi SSW 9.2 mph - N/A   Clear
10:52 AM 50.0 °F - 16.0 °F 26% 30.01 in 10.0 mi SW 15.0 mph 19.6 mph N/A   Clear
11:52 AM 55.0 °F - 12.9 °F 19% 29.99 in 10.0 mi SW 13.8 mph 27.6 mph N/A   Clear
12:52 PM 59.0 °F - 10.9 °F 15% 29.96 in 10.0 mi SW 20.7 mph 31.1 mph N/A   Clear
1:52 PM 61.0 °F - 12.9 °F 15% 29.92 in 10.0 mi SW 23.0 mph 31.1 mph N/A   Clear
2:52 PM 62.1 °F - 12.9 °F 15% 29.91 in 10.0 mi West 21.9 mph 32.2 mph N/A   Clear
3:52 PM 61.0 °F - 16.0 °F 17% 29.91 in 10.0 mi WSW 15.0 mph - N/A   Clear
4:52 PM 61.0 °F - 15.1 °F 17% 29.91 in 10.0 mi WSW 15.0 mph 23.0 mph N/A   Clear
5:52 PM 57.9 °F - 16.0 °F 19% 29.93 in 10.0 mi WSW 10.4 mph - N/A   Clear
6:52 PM 50.0 °F - 17.1 °F 27% 29.94 in 10.0 mi Calm Calm - N/A   Clear
7:52 PM 41.0 °F 38.0 °F 19.0 °F 41% 29.97 in 10.0 mi South 4.6 mph - N/A   Clear
8:52 PM 35.1 °F 32.2 °F 21.0 °F 57% 29.98 in 10.0 mi South 3.5 mph - N/A   Clear
9:52 PM 34.0 °F 31.0 °F 21.0 °F 59% 29.97 in 10.0 mi South 3.5 mph - N/A   Clear
10:52 PM 32.0 °F - 21.0 °F 64% 29.97 in 10.0 mi Calm Calm - N/A   Clear
11:52 PM 30.9 °F 27.5 °F 21.0 °F 67% 29.97 in 10.0 mi SSE 3.5 mph - N/A   Clear